When you browse on this site, cookies collect data to enhance your experience and personalize the content and advertising you see.
Visit our Privacy Policy to learn more. By continuing to use the site, you agree to this use of cookies and data.
  • In Deutschland
  • Länderverzeichnis
  • Für 7 Tage
  • Wassertemperatur
  • Wetterkarte
  • Widgets
  • user-avatar
    Anmelden

    Stündliche Wetter Aalsmeer

    Heute, 17 Februar, Montag

    Zeit Temperatur Niederschläge Wind Luftdruck Luftfeuchtigkeit
    00:00 +6°C° 0 mm 10 m/S 753 mmHg 68%
    01:00 +6°C° 0 mm 10 m/S 753 mmHg 66%
    02:00 +6°C° 0 mm 10 m/S 754 mmHg 63%
    03:00 +5°C° 0 mm 10 m/S 755 mmHg 61%
    04:00 +5°C° 0 mm 10 m/S 755 mmHg 63%
    05:00 +5°C° 0 mm 9 m/S 756 mmHg 66%
    06:00 +5°C° 0 mm 8 m/S 756 mmHg 74%
    07:00 +5°C° 0 mm 8 m/S 756 mmHg 74%
    08:00 +6°C° 0 mm 9 m/S 756 mmHg 73%
    09:00 +6°C° 0 mm 10 m/S 756 mmHg 73%
    10:00 +6°C° 0.3 mm 10 m/S 756 mmHg 74%
    11:00 +6°C° 0.3 mm 10 m/S 756 mmHg 76%
    12:00 +6°C° 0 mm 9 m/S 757 mmHg 79%
    13:00 +6°C° 0.1 mm 9 m/S 757 mmHg 73%
    14:00 +7°C° 0.1 mm 9 m/S 756 mmHg 67%
    15:00 +7°C° 0.1 mm 9 m/S 756 mmHg 61%
    16:00 +7°C° 0.1 mm 9 m/S 757 mmHg 67%
    17:00 +6°C° 0.1 mm 8 m/S 757 mmHg 72%
    18:00 +6°C° 0.1 mm 7 m/S 757 mmHg 77%
    19:00 +6°C° 0.4 mm 8 m/S 758 mmHg 76%
    20:00 +6°C° 0.4 mm 8 m/S 758 mmHg 76%
    21:00 +6°C° 0.4 mm 8 m/S 759 mmHg 76%
    22:00 +5°C° 0 mm 8 m/S 760 mmHg 76%
    23:00 +5°C° 0 mm 8 m/S 760 mmHg 76%

    Morgen, 18 Februar, Dienstag

    Zeit Temperatur Niederschläge Wind Luftdruck Luftfeuchtigkeit
    00:00 +5°C° 0 mm 8 m/S 761 mmHg 76%
    01:00 +4°C° 0 mm 8 m/S 761 mmHg 73%
    02:00 +4°C° 0 mm 8 m/S 762 mmHg 70%
    03:00 +4°C° 0 mm 8 m/S 762 mmHg 67%
    04:00 +2°C° 0 mm 8 m/S 763 mmHg 67%
    05:00 +2°C° 0 mm 8 m/S 763 mmHg 68%
    06:00 +3°C° 0 mm 7 m/S 764 mmHg 68%
    07:00 +2°C° 0 mm 8 m/S 764 mmHg 68%
    08:00 +4°C° 0 mm 8 m/S 765 mmHg 67%
    09:00 +5°C° 0 mm 8 m/S 765 mmHg 66%
    10:00 +5°C° 0.1 mm 8 m/S 765 mmHg 64%
    11:00 +6°C° 0.1 mm 9 m/S 765 mmHg 62%
    12:00 +6°C° 0.1 mm 9 m/S 764 mmHg 61%
    13:00 +6°C° 0 mm 9 m/S 764 mmHg 61%
    14:00 +6°C° 0 mm 9 m/S 764 mmHg 62%
    15:00 +6°C° 0 mm 9 m/S 763 mmHg 62%
    16:00 +6°C° 0 mm 9 m/S 763 mmHg 65%
    17:00 +6°C° 0 mm 9 m/S 762 mmHg 67%
    18:00 +6°C° 0 mm 9 m/S 762 mmHg 70%
    19:00 +5°C° 0.3 mm 9 m/S 761 mmHg 74%
    20:00 +5°C° 0.3 mm 9 m/S 761 mmHg 78%
    21:00 +5°C° 0.3 mm 9 m/S 760 mmHg 82%
    22:00 +5°C° 0.6 mm 9 m/S 759 mmHg 83%
    23:00 +4°C° 0.6 mm 8 m/S 759 mmHg 83%

    übermorgen, 19 Februar, Mittwoch

    Zeit Temperatur Niederschläge Wind Luftdruck Luftfeuchtigkeit
    00:00 +4°C° 0.6 mm 8 m/S 758 mmHg 84%
    01:00 +4°C° 0.3 mm 8 m/S 759 mmHg 79%
    02:00 +4°C° 0.3 mm 8 m/S 759 mmHg 74%
    03:00 +2°C° 0.3 mm 8 m/S 759 mmHg 69%
    04:00 +2°C° 0.2 mm 8 m/S 760 mmHg 69%
    05:00 +2°C° 0.2 mm 8 m/S 761 mmHg 70%
    06:00 +1°C° 0.2 mm 8 m/S 761 mmHg 70%
    07:00 +2°C° 0.1 mm 8 m/S 762 mmHg 69%
    08:00 +2°C° 0.1 mm 8 m/S 762 mmHg 68%
    09:00 +3°C° 0.1 mm 7 m/S 763 mmHg 66%
    10:00 +4°C° 0 mm 7 m/S 763 mmHg 66%
    11:00 +4°C° 0 mm 7 m/S 764 mmHg 66%
    12:00 +4°C° 0 mm 7 m/S 764 mmHg 66%
    13:00 +4°C° 0 mm 7 m/S 764 mmHg 64%
    14:00 +4°C° 0 mm 7 m/S 764 mmHg 63%
    15:00 +4°C° 0 mm 7 m/S 764 mmHg 62%
    16:00 +4°C° 0 mm 6 m/S 764 mmHg 65%
    17:00 +3°C° 0 mm 6 m/S 764 mmHg 68%
    18:00 +3°C° 0 mm 5 m/S 764 mmHg 71%
    19:00 +3°C° 0.1 mm 5 m/S 763 mmHg 76%
    20:00 +4°C° 0.1 mm 6 m/S 763 mmHg 82%
    21:00 +4°C° 0.1 mm 6 m/S 762 mmHg 87%
    22:00 +5°C° 0.1 mm 6 m/S 762 mmHg 87%
    23:00 +5°C° 0.1 mm 7 m/S 761 mmHg 87%

    20 Februar, Donnerstag

    Zeit Temperatur Niederschläge Wind Luftdruck Luftfeuchtigkeit
    00:00 +5°C° 0.1 mm 7 m/S 761 mmHg 87%
    01:00 +6°C° 0.2 mm 8 m/S 760 mmHg 86%
    02:00 +6°C° 0.2 mm 8 m/S 760 mmHg 85%
    03:00 +6°C° 0.2 mm 9 m/S 759 mmHg 84%
    04:00 +6°C° 0 mm 8 m/S 759 mmHg 84%
    05:00 +6°C° 0 mm 8 m/S 759 mmHg 83%
    06:00 +6°C° 0 mm 8 m/S 759 mmHg 82%
    07:00 +6°C° 0 mm 8 m/S 758 mmHg 81%
    08:00 +6°C° 0 mm 8 m/S 758 mmHg 79%
    09:00 +6°C° 0 mm 8 m/S 758 mmHg 78%
    10:00 +6°C° 0 mm 8 m/S 758 mmHg 75%
    11:00 +7°C° 0 mm 9 m/S 758 mmHg 71%
    12:00 +7°C° 0 mm 9 m/S 757 mmHg 68%
    13:00 +8°C° 0 mm 9 m/S 757 mmHg 68%
    14:00 +8°C° 0 mm 9 m/S 756 mmHg 68%
    15:00 +8°C° 0 mm 9 m/S 755 mmHg 67%
    16:00 +8°C° 0.2 mm 10 m/S 755 mmHg 71%
    17:00 +8°C° 0.2 mm 11 m/S 755 mmHg 75%
    18:00 +7°C° 0.2 mm 11 m/S 755 mmHg 79%
    19:00 +6°C° 0.1 mm 10 m/S 757 mmHg 75%
    20:00 +5°C° 0.1 mm 10 m/S 758 mmHg 71%
    21:00 +5°C° 0.1 mm 9 m/S 759 mmHg 67%
    22:00 +3°C° 0 mm 9 m/S 760 mmHg 66%
    23:00 +3°C° 0 mm 9 m/S 761 mmHg 65%

    21 Februar, Freitag

    Zeit Temperatur Niederschläge Wind Luftdruck Luftfeuchtigkeit
    00:00 +2°C° 0 mm 9 m/S 762 mmHg 65%
    01:00 +2°C° 0 mm 9 m/S 763 mmHg 65%
    02:00 +2°C° 0 mm 8 m/S 764 mmHg 65%
    03:00 +2°C° 0 mm 8 m/S 764 mmHg 65%
    04:00 +2°C° 0 mm 8 m/S 765 mmHg 66%
    05:00 +2°C° 0 mm 8 m/S 766 mmHg 67%
    06:00 +2°C° 0 mm 8 m/S 767 mmHg 68%
    13:00 +6°C° 0 mm 8 m/S 770 mmHg 60%
    14:00 +6°C° 0 mm 8 m/S 770 mmHg 60%
    15:00 +6°C° 0 mm 8 m/S 769 mmHg 61%
    16:00 +5°C° 0 mm 8 m/S 769 mmHg 64%
    17:00 +5°C° 0 mm 8 m/S 769 mmHg 67%
    18:00 +5°C° 0 mm 8 m/S 769 mmHg 69%
    19:00 +5°C° 0 mm 8 m/S 769 mmHg 70%
    20:00 +5°C° 0 mm 9 m/S 768 mmHg 71%
    21:00 +5°C° 0 mm 10 m/S 768 mmHg 72%
    22:00 +5°C° 0 mm 10 m/S 768 mmHg 73%
    23:00 +6°C° 0 mm 10 m/S 768 mmHg 73%

    22 Februar, Samstag

    Zeit Temperatur Niederschläge Wind Luftdruck Luftfeuchtigkeit
    00:00 +6°C° 0 mm 10 m/S 767 mmHg 74%
    01:00 +6°C° 0.1 mm 11 m/S 767 mmHg 75%
    02:00 +6°C° 0.1 mm 11 m/S 766 mmHg 76%
    03:00 +6°C° 0.1 mm 11 m/S 766 mmHg 77%
    04:00 +6°C° 0.1 mm 11 m/S 766 mmHg 78%
    05:00 +6°C° 0.1 mm 11 m/S 765 mmHg 79%
    06:00 +6°C° 0.1 mm 11 m/S 765 mmHg 79%
    07:00 +5°C° 0 mm 12 m/S 765 mmHg 80%
    08:00 +7°C° 0 mm 12 m/S 765 mmHg 81%
    09:00 +7°C° 0 mm 12 m/S 765 mmHg 81%
    10:00 +7°C° 0 mm 12 m/S 765 mmHg 82%
    11:00 +8°C° 0 mm 12 m/S 765 mmHg 82%
    12:00 +8°C° 0 mm 12 m/S 765 mmHg 82%
    13:00 +9°C° 0 mm 12 m/S 765 mmHg 82%
    14:00 +9°C° 0 mm 12 m/S 765 mmHg 81%
    15:00 +9°C° 0 mm 12 m/S 765 mmHg 81%
    16:00 +10°C° 0 mm 12 m/S 765 mmHg 81%
    17:00 +11°C° 0 mm 11 m/S 765 mmHg 81%
    18:00 +11°C° 0 mm 11 m/S 765 mmHg 81%
    19:00 +11°C° 0.1 mm 11 m/S 766 mmHg 82%
    20:00 +9°C° 0.1 mm 10 m/S 766 mmHg 84%
    21:00 +9°C° 0.1 mm 10 m/S 766 mmHg 85%
    22:00 +10°C° 0.1 mm 9 m/S 766 mmHg 85%
    23:00 +10°C° 0.1 mm 9 m/S 767 mmHg 85%
    Mehr zeigen